Volver al catálogo

FENGYUN 1C DEB

ActivoPO
NORAD 32234·DEBRIS·🇨🇳 China

Lanzado May 10, 1999 desde Taiyuan Satellite Launch Center

Loading…

Próximos Pases (próximas 24 horas)

TLE

ActualizadoSource: Space-Track

Época: Sep 14, 2026, 00:18 UTC

1 32234U 99025CWG 26257.01297628  .00000971  00000-0  69770-3 0  9995
2 32234  98.5147  90.9361 0133430 292.4108  66.2966 13.94986378970467

Sigue FENGYUN 1C DEB en tiempo real con AllMySat

Download on the App Store